Вернуться в каталог

STARLINK-30965

АктивенСвязьVLEO
NORAD 58477·PAYLOAD·🇺🇸 United States

Запущен Dec 3, 2023 с Cape Canaveral Space Force Station

Loading…

Ближайшие Пролёты (ближайшие 24 часа)

TLE

СвежийSource: CelesTrak SupGP

Эпоха: Sep 14, 2026, 20:30 UTC

1 58477C 23186E   26257.85465278  .00050175  00000+0  18175-2 0  2576
2 58477  43.0006  63.8928 0001429 267.8613 262.8659 15.27551316    16

Отслеживайте STARLINK-30965 в реальном времени с AllMySat

Download on the App Store